"TOA5","MOW","CPU:UNC_MeetingWaters","DataHourly"
"TIMESTAMP","SondeTempC","SpCond","DOSat","DOmg","pH","Turb","BattVolt_Min"
"TS","","","","","","",""
"","Smp","Smp","Smp","Smp","Smp","Smp","Min"
"2009-05-01 04:00:00",17.6299991608,0.0010000000475,105.800003052,40.5,6.15000009537,3.20000004768,12.8699998856
"2009-05-01 05:00:00",17.6900005341,0.0010000000475,105.800003052,41.4000015259,6.13999986649,2.40000009537,12.8400001526
"2009-05-01 06:00:00",17.6700000763,0.0010000000475,105.900001526,40.9000015259,6.15000009537,2.20000004768,12.8100004196
"2009-05-01 07:00:00",17.6200008392,0.0010000000475,105.800003052,40.5,6.15000009537,3.40000009537,12.7899999619
"2009-05-01 08:00:00",17.6599998474,0.0010000000475,105.699996948,40.2000007629,6.15999984741,4.19999980927,12.7600002289
"2009-05-01 09:00:00",17.4699993134,0.0010000000475,105.599998474,40.0999984741,6.15999984741,3.90000009537,12.7399997711
"2009-05-01 10:00:00",17.6100006104,0.0010000000475,105.900001526,39.5999984741,6.17000007629,11.1999998093,12.7100000381
"2009-05-01 11:00:00",17.8099994659,0.0010000000475,100.900001526,40.2000007629,6.15999984741,11.5,12.7399997711
"2009-05-01 12:00:00",18.2299995422,0.0010000000475,98.4000015259,41.0999984741,6.13999986649,4.40000009537,12.9600000381
"2009-05-01 13:00:00",18.4500007629,0.0010000000475,97.1999969482,41.2000007629,6.13999986649,3.70000004768,13.25
"2009-05-01 14:00:00",19.7199993134,0.0010000000475,104.400001526,44.2999992371,6.09000015259,1.70000004768,13.5500001907
"2009-05-01 15:00:00",21.5300006866,0.0,103.300003052,52.2000007629,5.96000003815,2.29999995232,13.9300003052
"2009-05-01 16:00:00",22.2999992371,0.0,103.099998474,54.7000007629,5.92000007629,2.09999990463,13.1800003052
"2009-05-01 17:00:00",20.4500007629,0.0,108.400001526,52.2000007629,5.96000003815,13.6999998093,13.1000003815
"2009-05-01 18:00:00",21.6499996185,0.192000001669,82.3000030518,-12.6000003815,7.09000015259,246.199996948,13.970000267
"2009-05-01 19:00:00",20.8299999237,0.00899999961257,68.1999969482,-22.5,7.26000022888,443.600006104,13.2399997711
"2009-05-01 20:00:00",20.1499996185,0.00700000021607,51.2999992371,-29.2000007629,7.36999988556,470.100006104,13.2100000381
"2009-05-01 21:00:00",20.3500003815,0.00700000021607,50.7999992371,-27.7000007629,7.34999990463,313.0,13.2299995422
"2009-05-01 22:00:00",20.1800003052,0.00700000021607,50.5,-26.0,7.32000017166,273.899993896,13.0799999237
"2009-05-01 23:00:00",20.1299991608,0.284999996424,74.1999969482,-26.8999996185,7.32999992371,390.0,12.970000267
"2009-05-02 00:00:00",19.3999996185,0.00999999977648,64.9000015259,-35.0999984741,7.48000001907,223.100006104,12.9399995804
"2009-05-02 01:00:00",19.0100002289,0.00899999961257,42.4000015259,-32.0999984741,7.42999982834,261.200012207,12.9200000763
"2009-05-02 02:00:00",18.8099994659,0.00800000037998,44.2000007629,-28.7999992371,7.36999988556,204.800003052,12.8800001144
"2009-05-02 03:00:00",18.6700000763,0.00800000037998,44.5,-24.2000007629,7.28999996185,155.0,12.8800001144
"2009-05-02 04:00:00",18.4899997711,0.00800000037998,47.7000007629,-20.0,7.21999979019,39.7000007629,12.8500003815
"2009-05-02 05:00:00",18.3700008392,0.00800000037998,104.300003052,-17.1000003815,7.15999984741,4.59999990463,12.8299999237
"2009-05-02 06:00:00",18.1100006104,0.00800000037998,104.400001526,-13.8999996185,7.11000013351,2.29999995232,12.8000001907
"2009-05-02 07:00:00",18.1700000763,0.00800000037998,104.699996948,-12.1999998093,7.07999992371,2.29999995232,12.779999733
"2009-05-02 08:00:00",17.9799995422,0.00800000037998,105.0,-11.0,7.05999994278,1.20000004768,12.7600002289
"2009-05-02 09:00:00",17.6299991608,0.00700000021607,105.400001526,-9.30000019073,7.03000020981,1.79999995232,12.7399997711
"2009-05-02 10:00:00",17.4200000763,0.00700000021607,105.400001526,-8.19999980927,7.01000022888,2.40000009537,12.7299995422
"2009-05-02 11:00:00",17.9400005341,0.00700000021607,104.800003052,-7.30000019073,6.98999977112,1.20000004768,12.7899999619
"2009-05-02 12:00:00",18.3500003815,0.00700000021607,104.599998474,-6.69999980927,6.98000001907,0.800000011921,13.1199998856
"2009-05-02 13:00:00",18.6000003815,0.00700000021607,104.300003052,-5.90000009537,6.96999979019,1.0,13.5
"2009-05-02 14:00:00",19.3600006104,0.00700000021607,104.199996948,-4.80000019073,6.94999980927,0.800000011921,13.6199998856
"2009-05-02 15:00:00",19.8999996185,0.00700000021607,104.099998474,-2.90000009537,6.92000007629,0.699999988079,13.2700004578
"2009-05-02 16:00:00",19.7999992371,0.00700000021607,104.400001526,-1.70000004768,6.90000009537,1.0,13.2600002289
"2009-05-02 17:00:00",20.8099994659,0.00700000021607,103.900001526,-1.0,6.88000011444,0.699999988079,13.2700004578
"2009-05-02 18:00:00",21.4899997711,0.00600000005215,103.5,3.90000009537,6.80000019073,0.699999988079,13.1800003052
"2009-05-02 19:00:00",22.0499992371,0.00400000018999,101.699996948,14.1000003815,6.61999988556,6.0,13.1599998474
"2009-05-02 20:00:00",21.8500003815,0.00400000018999,102.300003052,22.2000007629,6.48000001907,1.10000002384,13.1599998474
"2009-05-02 21:00:00",21.7299995422,0.00300000002608,102.599998474,25.5,6.42000007629,0.699999988079,13.2100000381
"2009-05-02 22:00:00",21.1599998474,0.00300000002608,103.099998474,24.0,6.44999980927,1.0,13.1999998093
"2009-05-02 23:00:00",20.1299991608,0.00300000002608,104.300003052,22.7999992371,6.46999979019,0.899999976158,12.9600000381
"2009-05-03 00:00:00",19.4799995422,0.00300000002608,104.699996948,20.5,6.51000022888,0.699999988079,12.9300003052
"2009-05-03 01:00:00",19.1700000763,0.00300000002608,104.800003052,18.8999996185,6.53000020981,0.699999988079,12.9200000763
"2009-05-03 02:00:00",18.8999996185,0.00300000002608,104.800003052,18.3999996185,6.53999996185,0.699999988079,12.8900003433
"2009-05-03 03:00:00",18.3600006104,0.00300000002608,105.300003052,17.8999996185,6.55000019073,1.89999997616,12.8800001144
"2009-05-03 04:00:00",18.4400005341,0.00300000002608,105.0,16.8999996185,6.57000017166,0.800000011921,12.8400001526
"2009-05-03 05:00:00",18.2399997711,0.00300000002608,105.099998474,17.7999992371,6.55000019073,0.800000011921,12.8199996948
"2009-05-03 06:00:00",18.25,0.00300000002608,104.900001526,16.7000007629,6.57000017166,0.699999988079,12.7899999619
"2009-05-03 07:00:00",18.2099990845,0.00300000002608,104.900001526,16.2000007629,6.57999992371,0.600000023842,12.7700004578
"2009-05-03 08:00:00",18.1700000763,0.00300000002608,105.0,15.8000001907,6.59000015259,0.600000023842,12.7299995422
"2009-05-03 09:00:00",17.9200000763,0.00300000002608,105.0,15.5,6.59000015259,0.699999988079,12.7299995422
"2009-05-03 10:00:00",17.7099990845,0.00300000002608,105.400001526,14.6000003815,6.61000013351,0.699999988079,12.6999998093
"2009-05-03 11:00:00",18.1100006104,0.00300000002608,104.699996948,13.3999996185,6.63000011444,0.699999988079,12.75
"2009-05-03 12:00:00",18.7900009155,0.00300000002608,104.300003052,12.8999996185,6.63999986649,0.600000023842,12.9399995804
"2009-05-03 13:00:00",19.7700004578,0.00300000002608,103.5,15.8999996185,6.59000015259,0.800000011921,13.470000267
"2009-05-03 14:00:00",20.6200008392,0.00200000009499,101.400001526,19.1000003815,6.53000020981,0.5,13.8599996567
"2009-05-03 15:00:00",20.7999992371,0.00200000009499,74.4000015259,21.6000003815,6.48999977112,4.69999980927,14.0200004578
"2009-05-03 16:00:00",21.9200000763,0.0010000000475,99.6999969482,25.2000007629,6.42999982834,0.800000011921,13.9499998093
"2009-05-03 17:00:00",23.3600006104,0.0,99.5,32.2999992371,6.30999994278,4.30000019073,13.9099998474
"2009-05-03 18:00:00",23.1299991608,0.0,100.0,32.5,6.30999994278,2.79999995232,13.1499996185
"2009-05-03 19:00:00",22.6499996185,0.0,101.699996948,35.5,6.25,1.39999997616,13.1300001144
"2009-05-03 20:00:00",22.3700008392,0.0,102.199996948,34.4000015259,6.26999998093,6.90000009537,13.1300001144
"2009-05-03 21:00:00",22.0100002289,0.0,102.800003052,33.5999984741,6.28000020981,2.70000004768,13.1800003052
"2009-05-03 22:00:00",21.2999992371,0.0,103.5,31.2000007629,6.32999992371,2.0,13.1800003052
"2009-05-03 23:00:00",20.5100002289,0.0,104.099998474,26.7999992371,6.40000009537,2.20000004768,12.9799995422
"2009-05-04 00:00:00",19.6800003052,0.0,104.599998474,23.7000007629,6.44999980927,12.1999998093,12.9499998093
"2009-05-04 01:00:00",19.0799999237,0.0,105.099998474,21.0,6.5,2.09999990463,12.9200000763
"2009-05-04 02:00:00",18.6399993896,0.0010000000475,105.199996948,19.7000007629,6.51999998093,1.79999995232,12.8999996185
"2009-05-04 03:00:00",18.4400005341,0.0010000000475,105.0,18.3999996185,6.53999996185,1.89999997616,12.8800001144
"2009-05-04 04:00:00",18.4099998474,0.0010000000475,105.099998474,17.6000003815,6.55999994278,1.5,12.8500003815
"2009-05-04 05:00:00",18.4599990845,0.0010000000475,105.099998474,16.6000003815,6.57000017166,7.0,12.8199996948
"2009-05-04 06:00:00",18.5400009155,0.0010000000475,104.800003052,16.3999996185,6.57999992371,1.39999997616,12.8000001907
"2009-05-04 07:00:00",18.4200000763,0.0010000000475,104.900001526,16.1000003815,6.57999992371,1.29999995232,12.779999733
"2009-05-04 08:00:00",18.4699993134,0.0010000000475,104.400001526,17.7999992371,6.55000019073,0.600000023842,12.75
"2009-05-04 09:00:00",18.3799991608,0.0010000000475,104.599998474,17.5,6.55999994278,0.699999988079,12.7299995422
"2009-05-04 10:00:00",18.4899997711,0.0010000000475,104.599998474,16.8999996185,6.57000017166,0.5,12.7399997711
"2009-05-04 11:00:00",18.6299991608,0.0010000000475,104.300003052,16.7999992371,6.57000017166,3.59999990463,12.7600002289
"2009-05-04 12:00:00",19.4599990845,0.0010000000475,103.599998474,18.1000003815,6.55000019073,0.5,12.8500003815
"2009-05-04 13:00:00",20.1299991608,0.0,84.9000015259,23.8999996185,6.44999980927,3.70000004768,13.3000001907
"2009-05-04 14:00:00",21.2000007629,0.0,101.900001526,28.2000007629,6.38000011444,5.5,13.4099998474
"2009-05-04 15:00:00",23.9599990845,0.0,101.5,32.2000007629,6.30999994278,2.40000009537,13.8199996948
"2009-05-04 16:00:00",24.2700004578,0.0,89.9000015259,36.7999992371,6.23000001907,5.5,13.8100004196
"2009-05-04 17:00:00",24.4500007629,0.0,101.199996948,37.4000015259,6.21999979019,0.5,13.0699996948
"2009-05-04 18:00:00",23.4200000763,0.0,101.699996948,37.0999984741,6.23000001907,0.5,13.0699996948
"2009-05-04 19:00:00",22.8299999237,0.0,102.900001526,34.4000015259,6.26999998093,0.40000000596,13.1300001144
"2009-05-04 20:00:00",22.0699996948,0.0,103.400001526,34.0,6.28000020981,1.10000002384,13.1499996185
"2009-05-04 21:00:00",21.6800003052,0.0,104.0,32.7999992371,6.30000019073,0.5,13.1800003052
"2009-05-04 22:00:00",21.1700000763,0.0,104.599998474,31.2000007629,6.32000017166,1.29999995232,13.1499996185
"2009-05-04 23:00:00",20.7099990845,0.0,104.900001526,32.0999984741,6.30999994278,34.2000007629,12.9499998093
"2009-05-05 00:00:00",19.9200000763,0.0,106.199996948,25.5,6.42000007629,0.5,12.9300003052
"2009-05-05 01:00:00",20.3700008392,0.243000000715,87.3000030518,-48.7999992371,7.71999979019,270.399993896,12.8999996185
"2009-05-05 02:00:00",20.7600002289,0.0790000036359,93.0999984741,-38.4000015259,7.53000020981,179.100006104,12.8800001144
"2009-05-05 03:00:00",20.2800006866,0.10000000149,86.0,-26.6000003815,7.32999992371,409.700012207,12.8500003815
"2009-05-05 04:00:00",19.9099998474,0.115999996662,87.1999969482,-22.3999996185,7.26000022888,533.900024414,12.8299999237
"2009-05-05 05:00:00",19.8199996948,0.0649999976158,82.9000015259,-20.1000003815,7.21999979019,248.0,12.8100004196
"2009-05-05 06:00:00",19.7099990845,0.0780000016093,95.5999984741,-22.7000007629,7.26000022888,176.800003052,12.779999733
"2009-05-05 07:00:00",19.3600006104,0.0900000035763,88.0,-22.7000007629,7.26000022888,758.900024414,12.7600002289
"2009-05-05 08:00:00",18.9899997711,0.0590000003576,85.5,-19.6000003815,7.21000003815,387.799987793,12.7299995422
"2009-05-05 09:00:00",17.3600006104,0.00700000021607,81.0,-28.7000007629,7.36999988556,272.799987793,12.720000267
"2009-05-05 10:00:00",17.8400001526,0.00700000021607,86.3000030518,-26.7999992371,7.34000015259,218.399993896,12.6999998093
"2009-05-05 11:00:00",16.7000007629,0.00700000021607,85.9000015259,-25.0,7.30000019073,108.699996948,12.720000267
"2009-05-05 12:00:00",16.3600006104,0.00700000021607,82.9000015259,-22.2999992371,7.26000022888,65.0,12.7600002289
"2009-05-05 13:00:00",16.3500003815,0.00700000021607,85.6999969482,-19.7999992371,7.21000003815,31.2999992371,12.7299995422
"2009-05-05 14:00:00",16.5200004578,0.00700000021607,82.9000015259,-16.3999996185,7.15000009537,30.2000007629,12.7600002289
"2009-05-05 15:00:00",17.0,0.00700000021607,89.5,-12.1000003815,7.07999992371,19.7999992371,13.0900001526
"2009-05-05 16:00:00",17.2099990845,0.00700000021607,90.9000015259,-9.39999961853,7.03000020981,29.2999992371,13.5100002289
"2009-05-05 17:00:00",17.6800003052,0.00700000021607,87.4000015259,-5.19999980927,6.96000003815,30.7999992371,13.470000267
"2009-05-05 18:00:00",17.7299995422,0.00700000021607,82.4000015259,-4.09999990463,6.94000005722,45.4000015259,13.1899995804
"2009-05-05 19:00:00",19.0,0.138999998569,91.8000030518,-33.7999992371,7.46000003815,1415.0,13.7600002289
"2009-05-05 20:00:00",19.1800003052,0.0630000010133,87.5,-32.7000007629,7.44000005722,1337.0,13.1800003052
"2009-05-05 21:00:00",19.5,0.0879999995232,96.1999969482,-27.1000003815,7.34000015259,1534.0,13.0399999619
"2009-05-05 22:00:00",19.5,0.0799999982119,94.8000030518,-41.2000007629,7.59000015259,1655.0,12.9899997711
"2009-05-05 23:00:00",19.2199993134,0.118000000715,92.4000015259,-39.2000007629,7.55000019073,1252.0,12.9499998093
"2009-05-06 00:00:00",18.9400005341,0.11400000006,92.0999984741,-36.2999992371,7.5,1621.0,12.9300003052
"2009-05-06 01:00:00",18.6599998474,0.109999999404,91.6999969482,-36.0999984741,7.5,986.0,12.9200000763
"2009-05-06 02:00:00",18.4099998474,0.01600000076,92.4000015259,-36.5999984741,7.51000022888,478.600006104,12.8900003433
"2009-05-06 03:00:00",17.8500003815,0.0120000001043,90.3000030518,-46.0,7.67000007629,194.600006104,12.8699998856
"2009-05-06 04:00:00",17.2299995422,0.0109999999404,89.1999969482,-47.7999992371,7.71000003815,191.399993896,12.8299999237
"2009-05-06 05:00:00",16.9200000763,0.0109999999404,87.6999969482,-43.0,7.61999988556,545.900024414,12.8000001907
"2009-05-06 06:00:00",16.6599998474,0.0109999999404,88.9000015259,-38.0,7.53000020981,338.399993896,12.7600002289
"2009-05-06 07:00:00",16.3299999237,0.0109999999404,91.6999969482,-33.4000015259,7.44999980927,117.5,12.720000267
"2009-05-06 08:00:00",16.2800006866,0.00999999977648,89.5999984741,-29.7999992371,7.38999986649,60.2000007629,12.6599998474
"2009-05-06 09:00:00",16.1599998474,0.00999999977648,85.1999969482,-26.7999992371,7.34000015259,50.9000015259,12.6999998093
"2009-05-06 10:00:00",16.2399997711,0.00999999977648,93.3000030518,-24.7000007629,7.30000019073,32.2999992371,12.6800003052
"2009-05-06 11:00:00",16.3600006104,0.00999999977648,91.5,-23.0,7.26999998093,29.2999992371,12.6899995804
"2009-05-06 12:00:00",16.7800006866,0.00999999977648,90.9000015259,-21.6000003815,7.25,26.1000003815,12.779999733
"2009-05-06 13:00:00",17.5699996948,0.0109999999404,92.5999984741,-20.5,7.21999979019,23.6000003815,13.3400001526
"2009-05-06 14:00:00",17.9500007629,0.0130000002682,97.8000030518,-52.0999984741,7.78000020981,41.2999992371,13.6300001144
"2009-05-06 15:00:00",19.2299995422,0.0120000001043,94.8000030518,-51.9000015259,7.76999998093,24.1000003815,14.0900001526
"2009-05-06 16:00:00",20.3600006104,0.0120000001043,86.0,-45.9000015259,7.67000007629,23.8999996185,14.0399999619
"2009-05-06 17:00:00",21.5599994659,0.0109999999404,90.0999984741,-39.0999984741,7.53999996185,24.2000007629,14.0100002289
"2009-05-06 18:00:00",20.9699993134,0.0109999999404,76.3000030518,-32.7000007629,7.42999982834,34.2000007629,13.25
"2009-05-06 19:00:00",19.6399993896,0.268999993801,93.8000030518,-54.9000015259,7.82000017166,515.799987793,13.1099996567
"2009-05-06 20:00:00",21.4099998474,0.123000003397,91.4000015259,-47.9000015259,7.69999980927,891.0,13.279999733
"2009-05-06 21:00:00",21.3999996185,0.00999999977648,86.5999984741,-37.9000015259,7.51999998093,515.0,14.0200004578
"2009-05-06 22:00:00",21.0799999237,0.00999999977648,80.5999984741,-38.2000007629,7.53000020981,441.100006104,13.1099996567
"2009-05-06 23:00:00",20.6900005341,0.00999999977648,80.6999969482,-28.6000003815,7.36000013351,373.5,12.9899997711
"2009-05-07 00:00:00",20.2299995422,0.00999999977648,73.9000015259,-21.6000003815,7.23999977112,321.899993896,12.9600000381
"2009-05-07 01:00:00",19.9200000763,0.00999999977648,83.0,-16.8999996185,7.15999984741,174.0,12.8599996567
"2009-05-07 02:00:00",19.8400001526,0.00999999977648,82.6999969482,-14.0,7.11000013351,140.199996948,12.8400001526
"2009-05-07 03:00:00",19.7099990845,0.00999999977648,86.3000030518,-12.3999996185,7.07999992371,53.5,12.8699998856
"2009-05-07 04:00:00",19.7000007629,0.00999999977648,71.9000015259,-11.3000001907,7.05999994278,30.8999996185,12.8400001526
"2009-05-07 05:00:00",19.4599990845,0.00999999977648,76.0999984741,-10.3999996185,7.05000019073,23.1000003815,12.8100004196
"2009-05-07 06:00:00",19.2199993134,0.00999999977648,69.5999984741,-9.89999961853,7.03999996185,22.3999996185,12.7899999619
"2009-05-07 07:00:00",18.8799991608,0.00999999977648,78.5,-9.80000019073,7.03999996185,20.2999992371,12.7600002289
"2009-05-07 08:00:00",18.7199993134,0.00999999977648,84.5999984741,-9.69999980927,7.03999996185,17.8999996185,12.7399997711
"2009-05-07 09:00:00",18.6800003052,0.00999999977648,91.1999969482,-9.69999980927,7.03000020981,16.2999992371,12.7299995422
"2009-05-07 10:00:00",18.7600002289,0.0109999999404,93.4000015259,-8.30000019073,7.01000022888,30.1000003815,12.720000267
"2009-05-07 11:00:00",18.8700008392,0.21099999547,95.9000015259,-50.2999992371,7.75,38.9000015259,12.7100000381
"2009-05-07 12:00:00",18.9200000763,0.0140000004321,89.0,-53.5999984741,7.80000019073,34.7999992371,12.8400001526
"2009-05-07 13:00:00",19.4099998474,0.0140000004321,85.8000030518,-47.9000015259,7.69999980927,28.1000003815,13.1899995804
"2009-05-07 14:00:00",19.8999996185,0.0130000002682,87.0,-41.4000015259,7.59000015259,33.0,13.4499998093
"2009-05-07 15:00:00",21.1599998474,0.0130000002682,91.0999984741,-34.5999984741,7.46999979019,47.7999992371,13.6300001144
"2009-05-07 16:00:00",22.5499992371,0.0120000001043,98.1999969482,-27.2999992371,7.34000015259,37.2999992371,13.8800001144
"2009-05-07 17:00:00",22.6700000763,0.0109999999404,95.5,-16.3999996185,7.15000009537,15.0,13.1000003815
"2009-05-07 18:00:00",22.2000007629,0.00899999961257,94.0999984741,-3.70000004768,6.92999982834,16.6000003815,13.0699996948
"2009-05-07 19:00:00",22.4799995422,0.00800000037998,103.800003052,26.6000003815,6.40999984741,1.39999997616,13.0699996948
"2009-05-07 20:00:00",22.6200008392,0.00600000005215,76.4000015259,31.2000007629,6.32999992371,17.7000007629,13.1000003815
"2009-05-07 21:00:00",22.3899993896,0.00600000005215,102.800003052,27.1000003815,6.40000009537,1.89999997616,13.2100000381
"2009-05-07 22:00:00",21.6399993896,0.00600000005215,104.800003052,23.7999992371,6.44999980927,4.59999990463,13.0699996948
"2009-05-07 23:00:00",21.0599994659,0.00600000005215,105.099998474,21.3999996185,6.48999977112,5.0,12.970000267
"2009-05-08 00:00:00",20.3899993896,0.00499999988824,105.900001526,21.5,6.48999977112,5.40000009537,12.9499998093
"2009-05-08 01:00:00",20.1900005341,0.00499999988824,105.599998474,20.8999996185,6.5,1.79999995232,12.9200000763
"2009-05-08 02:00:00",19.4500007629,0.00499999988824,106.199996948,19.8999996185,6.51999998093,3.70000004768,12.8999996185
"2009-05-08 03:00:00",19.0,0.00400000018999,106.400001526,18.7000007629,6.53999996185,2.79999995232,12.8900003433
"2009-05-08 04:00:00",18.7299995422,0.00400000018999,106.099998474,17.8999996185,6.55000019073,2.59999990463,12.8400001526
"2009-05-08 05:00:00",17.9799995422,0.00400000018999,106.5,17.1000003815,6.55999994278,1.29999995232,12.8400001526
"2009-05-08 06:00:00",17.5400009155,0.00400000018999,106.599998474,15.8000001907,6.59000015259,2.70000004768,12.8199996948
"2009-05-08 07:00:00",17.1599998474,0.00400000018999,106.599998474,14.6999998093,6.61000013351,7.5,12.7899999619
"2009-05-08 08:00:00",16.7099990845,0.00400000018999,107.0,13.6999998093,6.61999988556,3.20000004768,12.7700004578
"2009-05-08 09:00:00",16.5100002289,0.00400000018999,76.4000015259,12.6000003815,6.63999986649,7.30000019073,12.75
"2009-05-08 10:00:00",16.2600002289,0.00400000018999,107.800003052,12.8000001907,6.63999986649,1.79999995232,12.7399997711
"2009-05-08 11:00:00",16.8099994659,0.00400000018999,107.300003052,11.1000003815,6.67000007629,12.5,12.779999733
"2009-05-08 12:00:00",18.1800003052,0.00400000018999,106.199996948,9.69999980927,6.69000005722,1.29999995232,13.0100002289
"2009-05-08 13:00:00",19.2099990845,0.00400000018999,105.5,9.80000019073,6.69000005722,1.20000004768,13.529999733
"2009-05-08 14:00:00",20.2099990845,0.00400000018999,104.800003052,12.8000001907,6.63999986649,8.0,14.0
"2009-05-08 15:00:00",22.3899993896,0.00200000009499,104.099998474,24.3999996185,6.44999980927,2.40000009537,13.1599998474
"2009-05-08 16:00:00",22.4699993134,0.0010000000475,103.599998474,32.7999992371,6.30000019073,2.0,13.1400003433
"2009-05-08 17:00:00",22.5799999237,0.0010000000475,104.099998474,34.5,6.26999998093,0.800000011921,13.1599998474
"2009-05-08 18:00:00",21.9400005341,0.0010000000475,104.5,34.5,6.26999998093,3.29999995232,13.1800003052
"2009-05-08 19:00:00",22.0799999237,0.0010000000475,104.400001526,32.5,6.30000019073,1.20000004768,13.220000267
"2009-05-08 20:00:00",22.3099994659,0.0010000000475,103.800003052,34.0999984741,6.28000020981,7.40000009537,13.2100000381
"2009-05-08 21:00:00",21.8600006104,0.0010000000475,104.300003052,32.2999992371,6.30999994278,2.79999995232,13.220000267
"2009-05-08 22:00:00",21.6299991608,0.0010000000475,104.199996948,31.5,6.32000017166,0.899999976158,13.1499996185
"2009-05-08 23:00:00",21.2000007629,0.0010000000475,104.900001526,29.3999996185,6.36000013351,2.20000004768,12.9799995422
"2009-05-09 00:00:00",20.3999996185,0.0010000000475,105.300003052,26.7999992371,6.40000009537,1.29999995232,12.9600000381
"2009-05-09 01:00:00",20.0400009155,0.0010000000475,105.599998474,24.1000003815,6.44999980927,4.5,12.9300003052
"2009-05-09 02:00:00",19.9699993134,0.0010000000475,105.400001526,21.7000007629,6.48999977112,5.09999990463,12.9099998474
"2009-05-09 03:00:00",19.9799995422,0.0010000000475,105.599998474,20.8999996185,6.5,1.60000002384,12.8900003433
"2009-05-09 04:00:00",19.9500007629,0.00200000009499,105.599998474,19.7000007629,6.51999998093,1.89999997616,12.8699998856
"2009-05-09 05:00:00",19.9500007629,0.00200000009499,105.400001526,19.2000007629,6.53000020981,0.899999976158,12.8400001526
"2009-05-09 06:00:00",19.9899997711,0.00200000009499,105.400001526,19.2999992371,6.53000020981,0.800000011921,12.8100004196
"2009-05-09 07:00:00",19.5699996948,0.00200000009499,105.599998474,19.0,6.53000020981,0.899999976158,12.779999733
"2009-05-09 08:00:00",19.4400005341,0.00200000009499,105.699996948,17.8999996185,6.55000019073,0.800000011921,12.7600002289
"2009-05-09 09:00:00",19.2000007629,0.00200000009499,106.0,17.1000003815,6.57000017166,0.800000011921,12.7399997711
"2009-05-09 10:00:00",19.2199993134,0.00200000009499,105.599998474,15.3000001907,6.59999990463,3.29999995232,12.7399997711
"2009-05-09 11:00:00",19.5900001526,0.00200000009499,105.599998474,13.8999996185,6.61999988556,0.899999976158,12.7700004578
"2009-05-09 12:00:00",20.2700004578,0.00300000002608,105.5,13.1000003815,6.63999986649,0.800000011921,12.8999996185
"2009-05-09 13:00:00",20.8099994659,0.00300000002608,105.199996948,13.6000003815,6.63000011444,0.600000023842,13.25
"2009-05-09 14:00:00",22.1900005341,0.00200000009499,104.699996948,16.3999996185,6.57999992371,0.699999988079,13.8999996185